sat.trackr.live / text

‹ back to catalog

STARLINK-4083

NORAD 52832 · 2022-062C

PAYLOAD ACTIVE UNKNOWN

§ Identity

Operator
Country
US
Launch date
2022-06-17
Launch site
AFETR
Launch vehicle
Mass (kg)
RCS (m²)

Purposes: comms

External: N2YO · Heavens-Above · Gunter

§ Orbital elements

Epoch: 2026-09-19T13:49:05.334816Z

Period
94.01 min
Inclination
53.1589°
Eccentricity
0.0001158
Mean motion
15.31694736 rev/d
Perigee alt
470.0 km
Apogee alt
471.5 km
Semi-major
6,848.9 km
B*
2.1454e-7
RAAN
233.1102°
Arg perigee
82.1294°
Mean anomaly
277.9839°
Rev number
23,519

§ Raw data

STARLINK-40831 52832U 22062C   26262.57575619 -.00000358  00000+0  21454-6 0  99932 52832  53.1589 233.1102 0001158  82.1294 277.9839 15.31694736235196

JSON: /api/v1/satellites/52832 · /tle

For live sub-satellite position, see the globe view (requires WebGL).

§ Visibility from observer

Set your observer location to see the next 7 days of passes ≥ 10°. The values pass through the URL so the page stays shareable.

No JS? Fill the form by hand. The geolocation button needs JavaScript.